AirNav   Pilot Hours Calculator
 
 1405 users online  

2KY4 Oz Airport
Elizabethtown, Kentucky, USA

GOING TO ELIZABETHTOWN?


FAA INFORMATION EFFECTIVE 31 JANUARY 2019

Location

FAA Identifier: 2KY4
Lat/Long: 37-39-18.0000N / 085-48-49.0000W
37-39.300000N / 085-48.816667W
37.6550000 / -85.8136111
(estimated)
Elevation: 820 ft. / 250 m (estimated)
Variation: 03W (1995)
From city: 6 miles E of ELIZABETHTOWN, KY
Time zone: UTC -5 (UTC -4 during Daylight Saving Time)
Zip code: 42701

Airport Operations

Airport use: Private use. Permission required prior to landing
Activation date: 04/1999
Control tower: no
ARTCC: INDIANAPOLIS CENTER
FSS: LOUISVILLE FLIGHT SERVICE STATION
Attendance: UNATNDD
Wind indicator: yes
Segmented circle: no

Airport Communications

WX AWOS-3 at EKX (6 nm W): 121.025 (270-763-6433)
WX AWOS-3 at BRY (18 nm NE): 119.925 (502-348-1867)

Nearby radio navigation aids

VOR radial/distance  VOR name  Freq  Var
EWOr281/6.7NEW HOPE VOR/DME110.8001E
FTKr155/16.9FORT KNOX VOR/DME109.6001W
MYSr126/(25.0)MYSTIC VOR108.2001W
IIUr202/29.1LOUISVILLE VORTAC114.8001E
BQMr196/35.2BOWMAN VOR/DME112.2004W

 
NDB name  Hdg/Dist  Freq  Var  ID
GODMAN160/19.839603WGOI --. --- ..

Airport Services

Runway Information

Runway 14/32

Dimensions: 2930 x 85 ft. / 893 x 26 m
Surface: turf
Runway edge markings: RY 14/32 HAS WHITE MARKERS AT RY ENDS.
RUNWAY 14  RUNWAY 32
Traffic pattern: leftleft
Markings: NSTDNSTD

Airport Ownership and Management from official FAA records

Ownership: Privately-owned
Owner: JAMES LIVERS
601 THOROUGHBRED LANE
ELIZABETHTOWN, KY 42701
Manager: JAMES LIVERS
601 THOROUGHBRED LANE
ELIZABETHTOWN, KY 42701

Airport Operational Statistics

Aircraft based on the field: 2
Single engine airplanes: 1
Ultralights: 1
    

Additional Remarks

THREE RADIO TOWERS 320 FT TO 650 FT MSL LCTD 2 NM NORTHWEST OF ARPT.
OWNER DESIRES ARPT NOT BE CHARTED.

Instrument Procedures

There are no published instrument procedures at 2KY4.

Some nearby airports with instrument procedures:

KEKX - Addington Field Airport (6 nm W)
KFTK - Godman Army Airfield (17 nm NW)
KBRY - Samuels Field Airport (18 nm NE)
6I2 - Lebanon Springfield Airport-George Hoerter Field (27 nm E)
KAAS - Taylor County Airport (30 nm SE)
 
Loc | Ops | Rwys | IFR | FBO | Links
Com | Nav | Svcs | Stats | Notes
Area around 2KY4 (Oz Airport)
 
Road maps at: MapQuest Bing Google
 
Aerial photo
No photo
 
Sectional chart

 
Airport distance calculator
Flying to Oz Airport? Find the distance to fly.

From to 2KY4

Sunrise and sunset
Times for 18-Feb-2019
 Local
(UTC-5)
 Zulu
(UTC)
Morning civil twilight07:0412:04
Sunrise07:3012:30
Sunset18:2423:24
Evening civil twilight18:5123:51

Current date and time
Zulu (UTC)  18-Feb-2019 20:16:20
Local (UTC-5)  18-Feb-2019 15:16:20
 
METAR
KEKX 
4nm NW 
181955Z AUTO 28010G15KT 10SM SCT029 BKN037 02/M05 A3036 RMK AO2 T00171053
KFTK 
16nm NW 
181956Z AUTO 26009KT 10SM BKN030 OVC038 02/M06 A3036 RMK AO2 SLP290 T00151056 $
KBRY 
18nm NE 
181955Z AUTO 28007G16KT 10SM SCT030 OVC042 01/M05 A3035 RMK AO1
TAF
KFTK 
16nm NW 
181700Z 1817/1923 29012KT 9999 BKN030 QNH3032INS BECMG 1900/1901 31006KT 9999 SCT020 QNH3039INS BECMG 1914/1915 07010G15KT 9999 FEW140 BKN200 QNH3056INS TX02/1821Z TNM02/1911Z
NOTAMs
Click for the latest NOTAMs
NOTAMs are issued by the DoD/FAA and will open in a separate window not controlled by AirNav.

 

 
 

Would you like to see your business listed on this page?

 If your business provides an interesting product or service to pilots, flight crews, aircraft, or users of the Oz Airport, you should consider listing it here.  To start the listing process, click on the button below
 
Add a business
 

Other Pages about Oz Airport

Update a link
 
Copyright © AirNav, LLC. All rights reserved. Privacy Policy  Contact